Hourly Data Report for October 04, 2013

All times are specified in Local Standard Time (LST). Add 1 hour to adjust for Daylight Saving Time where and when it is observed.

PANGNIRTUNG
NUNAVUT

66°08'36.300" N
65°42'40.500" W
22.60 m
2403049
71826
WXP

Download Data

Hourly Data (October 2013)
Hourly Data Report for October 4, 2013
Temp Definition
°C
Dew Point Temp Definition
°C
Rel Hum Definition
%
Wind Dir Definition
10's deg

Wind Spd Definition
km/h
Visibility Definition
km
Stn Press Definition
kPa
Hmdx Definition


Wind Chill Definition


Weather Definition


TIME
00:00 -0.6 -6.8 63 7 11   101.25   -4 LegendNANA
01:00 -0.6 -7.0 62 6 9   101.26   -4 LegendNANA
02:00 -0.8 -6.5 65 6 9   101.27   -4 LegendNANA
03:00 -0.8 -6.2 67 7 7   101.28   -3 LegendNANA
04:00 -1.0 -5.9 69 10 2   101.31   -2 LegendNANA
05:00 -1.1 -5.6 71 10 4   101.32   -2 LegendNANA
06:00 -1.0 -5.1 74 12 6   101.34   -3 LegendNANA
07:00 -0.6 -5.2 71 5 9   101.35   -4 LegendNANA
08:00 -0.6 -4.6 74 4 7   101.33   -3 LegendNANA
09:00 -0.7 -4.8 74 4 9   101.29   -4 LegendNANA
10:00 -0.4 -4.5 74 3 9   101.24   -4 LegendNANA
11:00 0.1 -4.3 72 3 6   101.21     LegendNANA
12:00 0.2 -3.6 76 4 9   101.20     LegendNANA
13:00 0.4 -4.1 72 4 7   101.18     LegendNANA
14:00 0.2 -4.3 72 4 6   101.16     LegendNANA
15:00 -0.5 -2.1 89 24 4   101.16   -2 LegendNANA
16:00 -0.8 -3.3 83 11 4   101.14   -2 LegendNANA
17:00 -0.4 -3.1 82 11 4   101.13   -2 LegendNANA
18:00 -0.5 -3.1 83   0   101.13     LegendNANA
19:00 -0.9 -4.6 76 11 6   101.14   -3 LegendNANA
20:00 -1.1 -5.0 75 13 4   101.13   -2 LegendNANA
21:00 -1.1 -4.4 78 8 6   101.11   -3 LegendNANA
22:00 -1.2 -5.3 74 3 2   101.08   -2 LegendNANA
23:00 -1.4 -4.8 78 7 2   101.06   -2 LegendNANA

Notes on Data Quality.

Legend

  • E = Estimated
  • M = Missing
  • NA = Not Available
  • ‡ = Partner data that is not subject to review by the National Climate Archives
Date modified: